Location: Dötzum
(52.0808°N, 9.8063°E)
Time: 06:28:55
(UTC+00:00)

USA 308 - Pass Details

Date: 27 May 2022
Orbit: 549 x 558 km, 54.0° (Epoch: 14 June)

Event Time Altitude Azimuth Distance (km) Brightness Sun altitude
Exits shadow 02:12:34 - 263° (W) 2,541 5.8 -7.4°
Reaches altitude 10° 02:14:19 10° 265° (W) 1,845 5.1 -7.2°
Maximum altitude 02:18:31 73° 350° (N) 591 3.1 -6.8°
Drops below altitude 10° 02:22:43 10° 76° (ENE) 1,848 6.5 -6.3°
Sets 02:24:59 0° 78° (ENE) 2,752 7.4 -6.1°
